Weather reports worldwide

Advertisment
Fyvie castle, United Kingdom (99010): temperature & dewpoint: 20.03.2019 19:00:00 - 26.03.2019 19:00:00 (GMT)Fyvie castle, United Kingdom (99010): precipitation: 20.03.2019 19:00:00 - 26.03.2019 19:00:00 (GMT)
Date & Time tt [°C] td [°C] rr [mm]
26.03.2019 19:00:00 10,8 5,5 -
26.03.2019 18:00:00 11,2 5,5 0,0
26.03.2019 17:00:00 11,7 5,5 0,0
26.03.2019 16:00:00 11,9 5,2 0,0
26.03.2019 15:00:00 11,9 4,9 0,0
26.03.2019 14:00:00 12,4 4,8 0,0
26.03.2019 13:00:00 11,9 4,4 0,0
26.03.2019 12:00:00 11,0 4,3 0,0
26.03.2019 11:00:00 10,3 3,7 0,0
26.03.2019 10:00:00 9,4 3,4 0,0
26.03.2019 09:00:00 8,7 3,2 0,0
26.03.2019 08:00:00 7,0 3,1 0,0
26.03.2019 07:00:00 4,0 2,5 0,0
26.03.2019 06:00:00 3,0 1,7 0,0
26.03.2019 05:00:00 4,3 2,3 0,0
26.03.2019 04:00:00 5,1 2,7 0,0
26.03.2019 03:00:00 4,5 2,6 0,0
26.03.2019 02:00:00 5,1 2,9 0,0
26.03.2019 01:00:00 6,1 2,9 0,0
26.03.2019 00:00:00 5,1 3,1 0,0
25.03.2019 23:00:00 5,7 3,0 0,0
25.03.2019 22:00:00 5,4 2,9 0,0
25.03.2019 21:00:00 5,7 2,9 0,0
25.03.2019 20:00:00 6,1 2,9 0,0
25.03.2019 19:00:00 7,4 2,6 0,0
25.03.2019 18:00:00 8,1 2,4 0,0
25.03.2019 17:00:00 8,6 2,6 0,0
25.03.2019 16:00:00 8,8 2,4 0,0
25.03.2019 15:00:00 8,9 2,2 0,0
25.03.2019 14:00:00 8,9 1,9 0,0
25.03.2019 13:00:00 8,8 1,7 0,0
25.03.2019 12:00:00 8,7 0,1 0,0
25.03.2019 11:00:00 8,8 1,0 0,0
25.03.2019 10:00:00 8,0 2,0 0,0
25.03.2019 09:00:00 6,8 2,8 0,0
25.03.2019 08:00:00 5,5 3,7 0,2
25.03.2019 07:00:00 5,4 2,8 0,0
25.03.2019 06:00:00 5,4 3,0 0,0
25.03.2019 05:00:00 5,6 3,0 0,0
25.03.2019 04:00:00 5,6 3,0 0,0
25.03.2019 03:00:00 5,2 2,9 0,0
25.03.2019 02:00:00 5,5 3,4 0,0
25.03.2019 01:00:00 4,9 3,0 1,2
25.03.2019 00:00:00 5,2 3,4 3,0
24.03.2019 23:00:00 5,0 3,5 1,8
24.03.2019 22:00:00 5,1 2,7 0,4
24.03.2019 21:00:00 5,1 1,6 0,0
24.03.2019 20:00:00 5,4 0,8 0,0
24.03.2019 19:00:00 5,2 0,1 0,0
24.03.2019 18:00:00 5,1 0,3 0,0
24.03.2019 17:00:00 5,6 0,7 0,0
24.03.2019 16:00:00 5,7 2,2 0,2
24.03.2019 15:00:00 7,2 0,3 0,0
24.03.2019 14:00:00 7,5 2,1 0,2
24.03.2019 13:00:00 8,6 1,1 0,0
24.03.2019 12:00:00 8,5 3,4 0,0
24.03.2019 11:00:00 9,7 1,8 0,0
24.03.2019 10:00:00 7,9 1,3 0,0
24.03.2019 09:00:00 6,7 1,3 0,0
24.03.2019 08:00:00 4,7 0,4 0,0
24.03.2019 07:00:00 3,1 0,0 0,0
24.03.2019 06:00:00 2,7 0,0 0,0
24.03.2019 05:00:00 3,0 0,0 0,0
24.03.2019 04:00:00 2,3 -0,8 0,0
24.03.2019 03:00:00 3,4 -0,1 0,0
24.03.2019 02:00:00 -0,1 -1,3 0,0
24.03.2019 01:00:00 0,1 -1,3 0,0
24.03.2019 00:00:00 0,5 -1,6 0,0
23.03.2019 23:00:00 1,9 -0,9 0,0
23.03.2019 22:00:00 2,5 -1,0 0,0
23.03.2019 21:00:00 5,1 -0,5 0,0
23.03.2019 20:00:00 4,6 -1,0 0,0
23.03.2019 19:00:00 5,6 -1,6 0,0
23.03.2019 18:00:00 7,9 -1,7 0,0
23.03.2019 17:00:00 10,3 -0,4 0,0
23.03.2019 16:00:00 9,5 -2,3 0,0
23.03.2019 15:00:00 10,8 -2,0 0,0
23.03.2019 14:00:00 9,0 -2,3 0,0
23.03.2019 13:00:00 10,0 -0,8 0,0
23.03.2019 12:00:00 9,1 -1,3 0,0
23.03.2019 11:00:00 8,7 -1,4 0,0
23.03.2019 10:00:00 7,6 -0,4 0,0
23.03.2019 09:00:00 6,4 -1,4 0,0
23.03.2019 08:00:00 5,0 -1,1 0,0
23.03.2019 07:00:00 2,9 -1,2 0,0
23.03.2019 06:00:00 3,6 -1,8 0,0
23.03.2019 05:00:00 3,4 -2,1 0,0
23.03.2019 04:00:00 2,9 -2,4 0,0
23.03.2019 03:00:00 3,1 -2,7 0,0
23.03.2019 02:00:00 3,9 -1,7 0,0
23.03.2019 01:00:00 4,3 -1,3 0,0
23.03.2019 00:00:00 4,8 -1,9 0,0
22.03.2019 23:00:00 5,0 -1,5 0,0
22.03.2019 22:00:00 5,2 -1,3 0,0
22.03.2019 21:00:00 5,9 0,0 0,0
22.03.2019 20:00:00 6,8 -0,4 0,0
22.03.2019 19:00:00 7,2 0,1 0,0
22.03.2019 18:00:00 8,5 1,7 0,0
22.03.2019 17:00:00 10,3 2,6 0,0
22.03.2019 16:00:00 12,2 3,4 0,0
22.03.2019 15:00:00 12,1 5,7 0,0
22.03.2019 14:00:00 13,3 6,3 0,0
22.03.2019 13:00:00 14,1 6,6 0,0
22.03.2019 12:00:00 12,8 6,8 0,0
22.03.2019 11:00:00 12,3 6,4 0,0
22.03.2019 10:00:00 11,6 6,5 0,0
22.03.2019 09:00:00 11,1 5,9 0,0
22.03.2019 08:00:00 10,2 6,4 0,0
22.03.2019 07:00:00 10,1 5,9 0,0
22.03.2019 06:00:00 10,3 5,7 0,0
22.03.2019 05:00:00 9,8 6,4 0,0
22.03.2019 04:00:00 9,6 6,1 0,0
22.03.2019 03:00:00 9,8 5,8 0,0
22.03.2019 02:00:00 10,1 7,1 0,0
22.03.2019 01:00:00 10,6 7,9 0,0
22.03.2019 00:00:00 10,5 8,7 0,0
21.03.2019 23:00:00 9,9 8,4 0,0
21.03.2019 22:00:00 8,9 7,9 0,0
21.03.2019 21:00:00 7,9 7,2 0,0
21.03.2019 20:00:00 8,0 6,9 0,0
21.03.2019 19:00:00 8,4 6,5 0,0
21.03.2019 18:00:00 8,4 6,0 0,0
21.03.2019 17:00:00 8,7 6,3 0,0
21.03.2019 16:00:00 9,5 5,9 0,0
21.03.2019 15:00:00 10,6 6,3 0,0
21.03.2019 14:00:00 12,5 7,3 0,0
21.03.2019 13:00:00 11,5 6,6 0,0
21.03.2019 12:00:00 10,5 6,4 0,0
21.03.2019 11:00:00 8,7 7,0 0,0
21.03.2019 10:00:00 9,6 8,4 0,2
21.03.2019 09:00:00 9,6 8,9 0,4
21.03.2019 08:00:00 10,1 8,5 0,2
21.03.2019 07:00:00 10,3 7,3 0,0
21.03.2019 06:00:00 10,6 7,0 0,0
21.03.2019 05:00:00 10,5 7,6 0,0
21.03.2019 04:00:00 7,6 6,0 0,0
21.03.2019 03:00:00 9,0 6,5 0,0
21.03.2019 02:00:00 11,2 7,3 0,0
21.03.2019 01:00:00 12,1 7,3 0,0
21.03.2019 00:00:00 12,8 7,2 0,0
20.03.2019 23:00:00 11,5 6,4 0,0
20.03.2019 22:00:00 12,6 7,6 0,0
20.03.2019 21:00:00 12,5 8,2 0,0
20.03.2019 20:00:00 12,4 7,6 0,0
20.03.2019 19:00:00 12,9 7,8 0,0

tt = temperature
td = dewpoint
rr = precipitation

Next stations